Flag for Spain Weather past 2 weeks in Santa Cruz de Tenerife, Canary Islands, Spain

Now
66 °F

Passing clouds.


Feels Like: 66 °F
Forecast: 67 / 74 °F
Wind: 7 mph from Northeast

Location: Tenerife Sur

Current Time: May 26, 2015 at 5:34:09 AM

Latest Report: May 26, 2015 at 5:00 AM


Visibility: N/A

Pressure: 30.07 "Hg

Humidity: 64%

Dew point: 54 °F

Location of Santa Cruz de TenerifeLocation

Historic Weather in Santa Cruz de Tenerife — Graph

°F

Santa Cruz de Tenerife temperature yesterday

Maximum temperature yesterday: 70 °F (at 12:00 AM)
Minimum temperature yesterday: 66 °F (at 5:00 AM)
Average temperature yesterday: 68 °F

Past Weeks' High & Low Weather Summary

 TemperatureHumidityPressure
High97 °F (May 14, 11:00 AM)94% (May 12, 6:00 AM)30.21 "Hg (May 12, 6:00 AM)
Low61 °F (May 21, 7:30 AM)11% (May 14, 10:30 AM)29.92 "Hg (May 12, 4:00 AM)
Average72 °F61%30.06 "Hg
* Reported May 11 4:00 AM — May 26 4:00 AM, Santa Cruz de Tenerife, Weather by CustomWeather, © 2015

Note: Actual official high and low records may vary slightly from our data, if they occured in-between our weather recording intervals... More about our weather records

Advertising

Santa Cruz de Tenerife weather history for previous 24 hours

 ConditionsComfort  
Time TempWeatherWind HumidityBarometerVisibility
4:00 AM
Tue, May 26
63 °FPassing clouds.7 mph68%30.07 "HgN/A
3:30 AM64 °FPassing clouds.7 mph68%30.07 "HgN/A
3:00 AM64 °FPassing clouds.3 mph68%30.07 "HgN/A
2:30 AM66 °FPassing clouds.7 mph64%30.07 "HgN/A
2:00 AM66 °FPassing clouds.5 mph68%30.09 "HgN/A
1:30 AM66 °FPassing clouds.10 mph68%30.09 "HgN/A
1:00 AM66 °FPassing clouds.8 mph68%30.09 "HgN/A
12:30 AM66 °FPassing clouds.2 mph68%30.09 "HgN/A
12:00 AM68 °FPassing clouds.5 mph64%30.09 "HgN/A
11:30 PM
Mon, May 25
68 °FPartly cloudy.10 mph60%30.09 "HgN/A
11:00 PM68 °FPassing clouds.2 mph64%30.09 "HgN/A
10:30 PM68 °FPassing clouds.3 mph64%30.09 "HgN/A
10:00 PM68 °FPartly cloudy.1 mph64%30.09 "HgN/A
9:30 PM68 °FBroken clouds.3 mph64%30.09 "HgN/A
9:00 PM68 °FPartly sunny.3 mph69%30.07 "HgN/A
8:30 PM68 °FBroken clouds.8 mph69%30.07 "HgN/A
8:00 PM68 °FBroken clouds.12 mph69%30.07 "HgN/A
7:30 PM68 °FPartly sunny.12 mph69%30.07 "HgN/A
7:00 PM68 °FBroken clouds.12 mph69%30.07 "HgN/A
6:30 PM70 °FBroken clouds.7 mph64%30.07 "HgN/A
6:00 PM70 °FBroken clouds.7 mph64%30.07 "HgN/A
5:30 PM70 °FPartly sunny.8 mph64%30.09 "HgN/A
5:00 PM70 °FPartly sunny.9 mph64%30.09 "HgN/A
4:30 PM68 °FPartly sunny.9 mph64%30.09 "HgN/A
4:00 PM70 °FPartly sunny.9 mph64%30.09 "HgN/A
3:30 PM70 °FPartly sunny.9 mph64%30.09 "HgN/A
3:00 PM68 °FBroken clouds.9 mph69%30.09 "HgN/A
2:30 PM70 °FBroken clouds.9 mph64%30.12 "HgN/A
2:00 PM70 °FBroken clouds.13 mph64%30.12 "HgN/A
1:30 PM70 °FPartly sunny.13 mph64%30.12 "HgN/A
1:00 PM70 °FBroken clouds.13 mph60%30.12 "HgN/A
12:30 PM70 °FBroken clouds.9 mph57%30.12 "HgN/A
12:00 PM70 °FBroken clouds.7 mph57%30.12 "HgN/A
11:30 AM70 °FPartly sunny.10 mph57%30.12 "HgN/A
11:00 AM70 °FPartly sunny.3 mph57%30.12 "HgN/A
10:30 AM70 °FPartly sunny.5 mph57%30.12 "HgN/A
10:00 AM68 °FBroken clouds.3 mph64%30.12 "HgN/A
9:30 AM68 °FBroken clouds.3 mph64%30.12 "HgN/A
9:00 AM68 °FPartly sunny.1 mph64%30.09 "HgN/A
8:30 AM68 °FPartly sunny.3 mph64%30.09 "HgN/A
8:00 AM68 °FPassing clouds.No wind64%30.09 "HgN/A
7:30 AM68 °FPassing clouds.No wind64%30.09 "HgN/A
7:00 AM66 °FPassing clouds.2 mph68%30.09 "HgN/A
6:30 AM66 °FPassing clouds.3 mph68%30.07 "HgN/A
6:00 AM66 °FPassing clouds.5 mph68%30.07 "HgN/A
5:30 AM66 °FPassing clouds.8 mph68%30.07 "HgN/A
5:00 AM66 °FPassing clouds.10 mph68%30.09 "HgN/A
Weather by CustomWeather, © 2015

See weather overviewHow to use our weather pages